Tracking 19476 objects as of 17-Jan-2019
HD Live streaming from Space Station
objects crossing your sky now

GALAXY 3R

Track GALAXY 3R now!
GALAXY 3R is classified as:


NORAD ID: 23741
Int'l Code: 1995-069A
Perigee: 35,760.0 km
Apogee: 35,815.0 km
Inclination: 10.7 °
Period: 1,435.8 minutes
Semi major axis: 42158 km
RCS: 12.3125 m2 (large)
Launch date: December 15, 1995
Source: United States (US)
Launch site: AIR FORCE EASTERN TEST RANGE (AFETR)

24 C-band, 16 Ku-band; North America, Caribbean; 140 television channels.
aabbcc
Your satellite tracking list
Your tracking list is empty




NASA's NSSDC Master Catalog

Two Line Element Set (TLE):
1 23741U 95069A   19016.53199035 -.00000254  00000-0  00000+0 0  9999
2 23741  10.7022  35.0322 0006521 288.4778 267.1551  1.00294180 84648
Source of the keplerian elements: AFSPC